[[{"header":{"parameterUnit":"m.s-1","parameterCategory":1,"la1":30.2991,"la2":30.254,"lo1":-89.0895,"lo2":-89.0444,"dy":0.0017,"dx":0.0017,"nx":28,"ny":28,"refTime":"2025-07-13T03:00:00:Z","depth":0,"parameterNumber":2,"parameterNumberName":"U-component_of_WINDS"},"data":[0,0,0,0,0,0,0,0,0,0,0,0,0,0,0,0,0,0,0,0,0,0,0,0,0,0,0,0,0,0,0,0,0,0,0,0,0,0,0,0,0,0,0,0,0,0,0,0,0,0,0,0,0,0,0,0,0,0,1.2063,1.2063,0,1.2117,1.2118,1.2118,1.2135,1.2135,1.2135,1.2134,1.2191,1.2192,1.2194,0,0,0,0,0,0,0,0,0,0,0,0,0,1.1975,1.1976,1.2063,1.2063,1.2064,1.2117,1.2118,1.2119,1.2135,1.2135,1.2134,1.2134,1.219,1.2192,1.2194,0,0,0,0,0,0,0,0,0,0,0,0,0,1.2019,1.1977,1.2063,1.2079,1.2081,1.2117,1.2118,1.2119,1.2135,1.2135,1.2134,1.2134,1.2189,1.2192,1.2195,1.2219,0,0,1.2203,1.2204,0,0,0,0,0,0,0,0,1.2017,1.2023,1.2076,1.2078,1.208,1.2119,1.2107,1.2152,1.2135,1.2115,1.2134,1.2134,1.2167,1.2172,1.2183,1.2221,1.2224,1.2203,1.2204,1.2205,1.2206,0,0,0,0,0,0,0,1.2014,1.202,1.2084,1.2076,1.2079,1.2084,1.209,1.2116,1.2142,1.2116,1.2118,1.2124,1.2168,1.218,1.2184,1.2225,1.2203,1.2205,1.2207,1.2208,1.2288,1.2288,0,0,0,0,0,0,1.2008,1.2018,1.2082,1.2086,1.2047,1.2086,1.2092,1.2107,1.2142,1.2147,1.2124,1.2124,1.2176,1.2181,1.2186,1.2218,1.2205,1.2208,1.2209,1.2287,1.2288,1.2289,0,0,0,0,0,0,1.2006,1.2013,1.208,1.2052,1.2061,1.2088,1.2104,1.2108,1.212,1.2148,1.2153,1.2131,1.2176,1.2182,1.2211,1.222,1.2209,1.2211,1.2287,1.2288,1.2288,1.2281,0,0,0,0,0,0,1.2003,1.2013,1.2021,1.2052,1.2063,1.2103,1.2104,1.2109,1.2124,1.2125,1.2156,1.2161,1.2176,1.2207,1.2214,1.2223,1.2214,1.2286,1.2287,1.2288,1.228,1.2281,1.2282,0,0,0,0,0,1.2,1.2017,1.2022,1.203,1.2074,1.2104,1.211,1.2127,1.2125,1.2135,1.2153,1.216,1.2218,1.221,1.2217,1.2228,1.2286,1.2287,1.2288,1.228,1.2281,1.2282,0,0,0,0,0,0,1.1986,1.2021,1.2027,1.2054,1.2076,1.2107,1.2119,1.2127,1.215,1.215,1.217,1.2177,1.2204,1.2219,1.2209,1.2254,1.2252,1.2255,1.2243,1.2245,1.2246,1.2241,1.2216,0,0,0,0,0,1.1986,1.2007,1.2037,1.2058,1.2069,1.2092,1.2106,1.2117,1.214,1.215,1.217,1.2193,1.2217,1.2231,1.2255,1.2283,1.229,1.2294,1.2295,1.2296,1.2298,1.2315,1.2318,1.2293,1.2293,1.2293,0,0,1.1987,1.2009,1.202,1.2056,1.2074,1.2096,1.21,1.2122,1.2139,1.2153,1.2181,1.2197,1.2224,1.2253,1.2267,1.2266,1.2307,1.2297,1.2298,1.2299,1.2317,1.2319,1.2321,1.2294,1.2293,1.2293,0,0,1.1999,1.2017,1.2037,1.2056,1.2084,1.2099,1.2104,1.2134,1.2145,1.2174,1.2186,1.2206,1.2246,1.2265,1.228,1.2301,1.2309,1.2308,1.2313,1.233,1.2332,1.2333,1.2342,1.2345,1.2311,1.2311,1.2311,0,1.1996,1.2029,1.2047,1.2069,1.2085,1.21,1.2121,1.2138,1.2172,1.2183,1.2182,1.2233,1.2252,1.2287,1.2292,1.2303,1.231,1.2305,1.233,1.2332,1.2334,1.2342,1.2345,1.231,1.231,1.231,1.231,0,1.2024,1.2047,1.206,1.2093,1.2111,1.2132,1.2154,1.217,1.218,1.2196,1.2226,1.225,1.2279,1.2288,1.2298,1.2324,1.2323,1.2326,1.2324,1.2336,1.2344,1.2347,1.231,1.231,1.231,1.231,0,0,1.2028,1.2072,1.2076,1.2092,1.2124,1.2143,1.2166,1.2194,1.2208,1.2231,1.2251,1.2286,1.2289,1.2306,1.2319,1.2333,1.235,1.2335,1.2336,1.2337,1.2382,1.2379,1.2383,1.2356,1.2356,1.2357,1.238,0,1.2045,1.2086,1.2104,1.2137,1.2159,1.2174,1.2195,1.2217,1.2233,1.2255,1.2273,1.2297,1.2299,1.231,1.2325,1.2345,1.2359,1.2343,1.2375,1.2376,1.2368,1.2387,1.2384,1.2405,1.2383,1.2383,1.2384,0,1.2069,1.2093,1.2129,1.216,1.217,1.2188,1.2216,1.2236,1.2263,1.2274,1.2294,1.2306,1.2332,1.2329,1.2365,1.2354,1.2368,1.238,1.2381,1.2385,1.2381,1.2391,1.2411,1.2415,1.2389,1.2388,1.2388,0,1.2069,1.211,1.2137,1.215,1.2187,1.22,1.2216,1.2242,1.2258,1.2283,1.2295,1.2322,1.2337,1.2359,1.2379,1.2374,1.2414,1.2412,1.2424,1.2424,1.2431,1.2431,1.2454,1.244,1.244,1.244,1.244,0,1.2086,1.2107,1.2138,1.2155,1.218,1.2201,1.2225,1.2242,1.2266,1.2287,1.2301,1.2321,1.2346,1.2369,1.2385,1.2413,1.242,1.243,1.2434,1.2429,1.2427,1.2438,1.2437,1.2441,1.2441,1.2441,1.2441,0,1.2089,1.2111,1.2142,1.2175,1.2184,1.2201,1.2229,1.2247,1.2264,1.229,1.2298,1.2325,1.2353,1.2375,1.2412,1.2422,1.2453,1.2457,1.2444,1.2446,1.2457,1.2456,1.2488,1.2494,1.2476,1.2476,1.2476,0,1.2099,1.2116,1.2151,1.2166,1.2182,1.2206,1.2223,1.2245,1.2262,1.2295,1.2309,1.2338,1.2362,1.2406,1.243,1.2458,1.2463,1.2473,1.2468,1.2462,1.2464,1.2463,1.2465,1.2473,1.2474,1.2474,1.2474,0,1.2113,1.2123,1.2147,1.2176,1.2196,1.2219,1.2243,1.2254,1.2281,1.23,1.2328,1.2347,1.2385,1.2414,1.2445,1.2463,1.2473,1.2475,1.248,1.2475,1.2467,1.2472,1.2446,1.2474,1.2474,1.2474,1.2474,1.2474,1.212,1.2137,1.2164,1.2191,1.2211,1.2233,1.2252,1.2272,1.2296,1.2329,1.234,1.237,1.2398,1.2441,1.2459,1.2483,1.2484,1.249,1.2492,1.2493,1.2493,1.2463,1.2489,1.2489,1.2489,1.2489,1.2489,0,1.2136,1.2155,1.2179,1.2212,1.2234,1.2242,1.2269,1.2286,1.2312,1.2337,1.2361,1.2396,1.2424,1.2451,1.2481,1.2495,1.2501,1.2503,1.2502,1.2506,1.249,1.2483,1.2498,1.2498,1.2498,1.2498,1.2498,1.2498,1.2147,1.2175,1.2189,1.2228,1.2247,1.2277,1.2291,1.2312,1.2333,1.237,1.2394,1.2411,1.2437,1.247,1.2497,1.2504,1.2515,1.2515,1.2523,1.2508,1.2507,1.2506,1.25,1.2517,1.2517,1.2538,1.2538,1.2538]},{"header":{"parameterUnit":"m.s-1","parameterCategory":1,"la1":30.2991,"la2":30.254,"lo1":-89.0895,"lo2":-89.0444,"dy":0.0017,"dx":0.0017,"nx":28,"ny":28,"refTime":"2025-07-13T03:00:00:Z","depth":0,"parameterNumber":3,"parameterNumberName":"V-component_of_WINDS"},"data":[0,0,0,0,0,0,0,0,0,0,0,0,0,0,0,0,0,0,0,0,0,0,0,0,0,0,0,0,0,0,0,0,0,0,0,0,0,0,0,0,0,0,0,0,0,0,0,0,0,0,0,0,0,0,0,0,0,0,-1.9799,-1.9799,0,-1.984,-1.9841,-1.9841,-1.9852,-1.9852,-1.9852,-1.9851,-1.9892,-1.9893,-1.9895,0,0,0,0,0,0,0,0,0,0,0,0,0,-1.9729,-1.9731,-1.9799,-1.9799,-1.98,-1.984,-1.9841,-1.9841,-1.9852,-1.9852,-1.9851,-1.9851,-1.9892,-1.9893,-1.9895,0,0,0,0,0,0,0,0,0,0,0,0,0,-1.9764,-1.9731,-1.9799,-1.981,-1.9812,-1.984,-1.9841,-1.9841,-1.9852,-1.9852,-1.9851,-1.9851,-1.9891,-1.9893,-1.9895,-1.9915,0,0,-1.9901,-1.9902,0,0,0,0,0,0,0,0,-1.9762,-1.9766,-1.9808,-1.9809,-1.9811,-1.9841,-1.9831,-1.9866,-1.9852,-1.9837,-1.9851,-1.9851,-1.9875,-1.9878,-1.9887,-1.9916,-1.9918,-1.9901,-1.9902,-1.9903,-1.9904,0,0,0,0,0,0,0,-1.976,-1.9765,-1.9815,-1.9809,-1.981,-1.9813,-1.9818,-1.9838,-1.9857,-1.9838,-1.9839,-1.9844,-1.9876,-1.9885,-1.9888,-1.9919,-1.9901,-1.9903,-1.9904,-1.9905,-1.9969,-1.997,0,0,0,0,0,0,-1.9755,-1.9763,-1.9814,-1.9816,-1.9785,-1.9815,-1.982,-1.9831,-1.9857,-1.9861,-1.9844,-1.9844,-1.9882,-1.9886,-1.9889,-1.9916,-1.9903,-1.9905,-1.9906,-1.9969,-1.9969,-1.997,0,0,0,0,0,0,-1.9754,-1.976,-1.9812,-1.979,-1.9797,-1.9816,-1.9829,-1.9832,-1.9842,-1.9862,-1.9865,-1.985,-1.9882,-1.9887,-1.9909,-1.9917,-1.9906,-1.9908,-1.9968,-1.9969,-1.997,-1.9968,0,0,0,0,0,0,-1.9752,-1.9759,-1.9766,-1.979,-1.9798,-1.9831,-1.983,-1.9834,-1.9845,-1.9846,-1.9868,-1.9871,-1.9882,-1.9906,-1.9911,-1.992,-1.9909,-1.9967,-1.9968,-1.9969,-1.9967,-1.9968,-1.9969,0,0,0,0,0,-1.9749,-1.9763,-1.9767,-1.9773,-1.9808,-1.9831,-1.9836,-1.9848,-1.9846,-1.9854,-1.9867,-1.9871,-1.9916,-1.9908,-1.9914,-1.9923,-1.9967,-1.9968,-1.9969,-1.9966,-1.9968,-1.9969,0,0,0,0,0,0,-1.9739,-1.9766,-1.9771,-1.9793,-1.981,-1.9833,-1.9843,-1.9849,-1.9866,-1.9866,-1.988,-1.9885,-1.9906,-1.9917,-1.9908,-1.9945,-1.9941,-1.9944,-1.9937,-1.9939,-1.994,-1.9937,-1.9911,0,0,0,0,0,-1.974,-1.9757,-1.978,-1.9797,-1.9805,-1.9823,-1.9834,-1.9842,-1.986,-1.9867,-1.9881,-1.9898,-1.9917,-1.9928,-1.9946,-1.9969,-1.9975,-1.9978,-1.9979,-1.998,-1.9982,-1.9997,-2.0,-1.9974,-1.9974,-1.9974,0,0,-1.974,-1.9758,-1.9767,-1.9795,-1.9809,-1.9827,-1.9829,-1.9847,-1.986,-1.9869,-1.9892,-1.9903,-1.9923,-1.9947,-1.9958,-1.9956,-1.9991,-1.9982,-1.9982,-1.9984,-1.9999,-2.0001,-2.0003,-1.9975,-1.9974,-1.9974,0,0,-1.9751,-1.9765,-1.9783,-1.9797,-1.9819,-1.9831,-1.9835,-1.9859,-1.9867,-1.989,-1.9898,-1.9914,-1.9945,-1.9959,-1.9971,-1.999,-1.9995,-1.9995,-2.0001,-2.0016,-2.0018,-2.002,-2.0028,-2.0031,-1.9997,-1.9997,-1.9997,0,-1.9749,-1.9777,-1.979,-1.9809,-1.9822,-1.9832,-1.985,-1.9864,-1.989,-1.9899,-1.9897,-1.9937,-1.9951,-1.9979,-1.9984,-1.9993,-1.9999,-1.9993,-2.0017,-2.0019,-2.0021,-2.0029,-2.0032,-1.9997,-1.9997,-1.9997,-1.9997,0,-1.9774,-1.9793,-1.9804,-1.9831,-1.9845,-1.9863,-1.988,-1.9893,-1.9901,-1.9913,-1.9938,-1.9955,-1.9978,-1.9985,-1.9991,-2.0014,-2.0013,-2.0014,-2.001,-2.0023,-2.0031,-2.0034,-1.9997,-1.9997,-1.9997,-1.9997,0,0,-1.9778,-1.9814,-1.9818,-1.9832,-1.9858,-1.9873,-1.9892,-1.9915,-1.9927,-1.9945,-1.9962,-1.9989,-1.9991,-2.0004,-2.0013,-2.0025,-2.0042,-2.0025,-2.0026,-2.0029,-2.0071,-2.0071,-2.0074,-2.0045,-2.0046,-2.0047,-2.0069,0,-1.9793,-1.9829,-1.9843,-1.9872,-1.9891,-1.9902,-1.9919,-1.9937,-1.995,-1.9968,-1.9982,-2.0001,-2.0001,-2.0009,-2.0022,-2.0037,-2.0051,-2.0036,-2.0062,-2.0063,-2.0058,-2.0078,-2.0077,-2.0098,-2.0072,-2.0073,-2.0073,0,-1.9815,-1.9835,-1.9866,-1.9893,-1.9901,-1.9916,-1.994,-1.9957,-1.9979,-1.9987,-2.0003,-2.0012,-2.0034,-2.0029,-2.006,-2.0049,-2.0061,-2.007,-2.0072,-2.0075,-2.0069,-2.0083,-2.0104,-2.0108,-2.0078,-2.0078,-2.0077,0,-1.9816,-1.9851,-1.9875,-1.9886,-1.9917,-1.9928,-1.9941,-1.9963,-1.9977,-1.9997,-2.0007,-2.0029,-2.0042,-2.0059,-2.0074,-2.0069,-2.0104,-2.01,-2.0113,-2.0113,-2.012,-2.0119,-2.0145,-2.0126,-2.0126,-2.0126,-2.0126,0,-1.9832,-1.9851,-1.9877,-1.9892,-1.9914,-1.9931,-1.9952,-1.9966,-1.9986,-2.0004,-2.0015,-2.0031,-2.005,-2.0069,-2.0081,-2.0106,-2.0111,-2.0119,-2.0122,-2.0119,-2.0118,-2.0127,-2.0126,-2.0127,-2.0126,-2.0126,-2.0126,0,-1.9837,-1.9855,-1.9882,-1.991,-1.9918,-1.9933,-1.9957,-1.9973,-1.9987,-2.001,-2.0016,-2.0038,-2.0062,-2.0079,-2.0109,-2.0117,-2.0144,-2.0147,-2.0137,-2.0139,-2.0151,-2.015,-2.0184,-2.019,-2.0166,-2.0166,-2.0166,0,-1.9846,-1.9861,-1.9892,-1.9905,-1.9919,-1.994,-1.9955,-1.9973,-1.9988,-2.0016,-2.0028,-2.0053,-2.0074,-2.0111,-2.013,-2.0154,-2.0157,-2.0168,-2.0161,-2.0158,-2.0159,-2.0159,-2.0161,-2.0169,-2.0169,-2.0169,-2.0169,0,-1.986,-1.9869,-1.989,-1.9916,-1.9934,-1.9954,-1.9975,-1.9985,-2.0007,-2.0024,-2.0049,-2.0065,-2.0098,-2.0123,-2.0149,-2.0163,-2.017,-2.0171,-2.0176,-2.0172,-2.0167,-2.0172,-2.0141,-2.017,-2.017,-2.017,-2.017,-2.017,-1.9868,-1.9883,-1.9908,-1.9932,-1.995,-1.997,-1.9986,-2.0004,-2.0025,-2.0054,-2.0063,-2.009,-2.0113,-2.0149,-2.0164,-2.0185,-2.0185,-2.0191,-2.0192,-2.0194,-2.0195,-2.0163,-2.019,-2.019,-2.019,-2.019,-2.019,0,-1.9884,-1.9901,-1.9923,-1.9953,-1.9973,-1.9979,-2.0003,-2.0019,-2.0043,-2.0065,-2.0086,-2.0116,-2.0141,-2.0163,-2.0189,-2.0202,-2.0207,-2.0209,-2.0208,-2.0212,-2.0193,-2.0187,-2.0205,-2.0205,-2.0205,-2.0205,-2.0205,-2.0205,-1.9894,-1.9921,-1.9934,-1.997,-1.9987,-2.0014,-2.0028,-2.0047,-2.0064,-2.0098,-2.012,-2.0134,-2.0157,-2.0185,-2.0209,-2.0215,-2.0224,-2.0226,-2.0233,-2.0215,-2.0213,-2.0211,-2.0206,-2.0228,-2.0228,-2.0251,-2.0251,-2.0251]}]]